[[[{"header":{"parameterUnit":"kt","parameterCategory":2,"dx":1,"dy":1,"la1":30.253999710083008,"la2":30.299108505249023,"lo1":-89.0895004272461,"lo2":-89.04439544677734,"nx":28,"ny":28,"refTime":"2022-09-19T21:00:00:Z","depth":0,"parameterNumber":1,"parameterNumberName":"U-component_of_WINDS"},"data":[3.9092,3.9216,3.9202,3.9339,3.9349,3.944,3.9469,3.9504,3.9528,3.9636,3.9696,3.9695,3.9715,3.9784,3.9849,3.9847,3.9877,3.9932,3.9921,3.9685,3.9651,3.9619,3.9588,3.9938,3.9938,4.0167,4.0169,4.0171,3.8924,3.8935,3.9002,3.9058,3.9116,3.9054,3.9094,3.9147,3.9231,3.9261,3.9319,3.9413,3.9486,3.9486,3.9554,3.9614,3.9589,3.9634,3.9629,3.9634,3.9381,3.9348,3.9653,3.9652,3.9652,3.9652,3.9652,3.9652,3.8614,3.8689,3.8713,3.8786,3.8809,3.8847,3.8917,3.8912,3.8978,3.9046,3.9015,3.911,3.9138,3.9212,3.9233,3.9308,3.9256,3.93,3.9311,3.9324,3.934,3.9015,3.9318,3.9317,3.9316,3.9316,3.9315,0,3.8382,3.8365,3.8427,3.8487,3.8538,3.8583,3.8621,3.8663,3.862,3.8677,3.8758,3.8802,3.889,3.8965,3.9025,3.9037,3.898,3.8971,3.9002,3.9019,3.9028,3.9027,3.8617,3.8963,3.896,3.8958,3.8956,3.8955,3.807,3.8158,3.8175,3.8222,3.8238,3.8313,3.8355,3.831,3.8357,3.8397,3.8466,3.854,3.8596,3.8729,3.8723,3.8789,3.8762,3.8896,3.8772,3.8785,3.8767,3.8763,3.8772,3.8922,3.8926,3.893,3.8932,0,3.7896,3.7869,3.8001,3.8008,3.8013,3.8109,3.8115,3.8188,3.8175,3.8274,3.8295,3.8275,3.8355,3.8327,3.8413,3.8396,3.8557,3.8527,3.8547,3.854,3.8659,3.8649,3.9045,3.9095,3.873,3.8734,3.8737,0,3.762,3.7737,3.7691,3.7768,3.7898,3.7848,3.7978,3.7979,3.8,3.8077,3.8005,3.808,3.8031,3.8102,3.8077,3.8203,3.8218,3.8214,3.8206,3.8221,3.8222,3.8247,3.8231,3.8182,3.818,3.8178,3.8177,0,3.7352,3.7463,3.7588,3.7609,3.7628,3.7689,3.77,3.7722,3.7763,3.7812,3.7838,3.7899,3.7933,3.7982,3.795,3.7867,3.8102,3.7981,3.8097,3.8099,3.8152,3.8149,3.8505,3.8174,3.8174,3.8173,3.8172,0,3.7124,3.7172,3.7358,3.7371,3.7403,3.7485,3.7541,3.7604,3.7633,3.7622,3.766,3.7608,3.7713,3.7596,3.7741,3.7642,3.7681,3.7685,3.7693,3.7701,3.7571,3.7778,3.8118,3.8154,3.7709,3.7705,3.7702,0,3.6826,3.7004,3.6961,3.7138,3.7216,3.7129,3.722,3.7247,3.7239,3.7305,3.7296,3.7372,3.7278,3.7297,3.7373,3.7368,3.7496,3.7349,3.7449,3.7454,3.7446,3.7759,3.7817,3.8047,3.7652,3.7657,3.7661,0,3.6591,3.661,3.6644,3.6666,3.6691,3.6755,3.686,3.6922,3.6969,3.7006,3.7093,3.7198,3.7132,3.7165,3.7128,3.7209,3.7408,3.7127,3.7127,3.7181,3.7623,3.7679,3.7717,3.7366,3.7372,3.7377,3.7621,0,3.6258,3.6341,3.6432,3.6481,3.6525,3.6633,3.6599,3.665,3.661,3.6598,3.6725,3.6738,3.6803,3.6838,3.6799,3.6991,3.6955,3.6883,3.6767,3.6972,3.7051,3.7084,3.6651,3.6647,3.6644,3.6642,0,0,3.598,3.6099,3.6046,3.6144,3.6178,3.6085,3.6203,3.6226,3.6274,3.6301,3.6235,3.6385,3.6399,3.6557,3.6618,3.6644,3.6676,3.6605,3.6874,3.69,3.6924,3.701,3.7044,3.6636,3.6635,3.6634,3.6633,0,3.5851,3.5863,3.5979,3.6,3.6028,3.6008,3.6037,3.6048,3.6046,3.6168,3.609,3.6162,3.6282,3.6307,3.6336,3.6585,3.6523,3.6607,3.6752,3.6844,3.6874,3.6901,3.6992,3.7025,3.6626,3.6626,3.6627,0,3.5615,3.5622,3.5673,3.5744,3.5761,3.5843,3.5712,3.5804,3.5864,3.5757,3.588,3.5883,3.5913,3.6066,3.6132,3.6075,3.6386,3.628,3.6299,3.6306,3.6393,3.6429,3.6462,3.6038,3.6036,3.6034,0,0,3.5508,3.5584,3.5576,3.5713,3.573,3.5702,3.5741,3.5704,3.5732,3.5743,3.5745,3.5776,3.5845,3.5892,3.5955,3.6126,3.613,3.6209,3.6237,3.626,3.6279,3.6373,3.6409,3.6027,3.6027,3.6026,0,0,3.5457,3.5453,3.5406,3.556,3.5589,3.5591,3.5677,3.562,3.5673,3.5657,3.56,3.5605,3.5747,3.5753,3.566,3.5913,3.5799,3.582,3.5904,3.5939,3.5966,3.5963,3.5529,0,0,0,0,0,3.5306,3.5453,3.5411,3.5431,3.552,3.5614,3.5625,3.5581,3.5501,3.557,3.5563,3.5492,3.5691,3.5608,3.563,3.5734,3.5934,3.595,3.5966,3.6114,3.6151,3.6181,0,0,0,0,0,0,3.5313,3.5338,3.5407,3.5416,3.5435,3.5608,3.5464,3.5455,3.5492,3.5477,3.5496,3.5493,3.5458,3.5593,3.5614,3.5714,3.5521,3.594,3.5954,3.5967,3.6127,3.6157,3.6182,0,0,0,0,0,3.5319,3.5339,3.5493,3.5413,3.543,3.5406,3.5458,3.545,3.5478,3.5466,3.546,3.544,3.5462,3.5476,3.5605,3.5706,3.5507,3.5515,3.5949,3.596,3.597,3.6141,0,0,0,0,0,0,3.5323,3.5333,3.5495,3.5498,3.5353,3.5395,3.54,3.5445,3.5462,3.5459,3.5406,3.5394,3.5466,3.5476,3.5488,3.5705,3.5495,3.5503,3.5508,3.5958,3.5966,3.5974,0,0,0,0,0,0,3.5322,3.5337,3.5497,3.5424,3.5418,3.5386,3.5391,3.5493,3.5464,3.5402,3.5392,3.5401,3.545,3.5478,3.5486,3.5649,3.5486,3.5494,3.5499,3.5502,3.5965,3.5971,0,0,0,0,0,0,3.5327,3.534,3.5422,3.5419,3.5413,3.545,3.5476,3.557,3.54,3.5403,3.5384,3.5376,3.5453,3.5461,3.5486,3.5645,3.5648,3.5486,3.5491,3.5495,3.5498,0,0,0,0,0,0,0,3.5332,3.5257,3.5474,3.5414,3.5409,3.5531,3.5532,3.5533,3.5399,3.5392,3.5385,3.5379,3.5442,3.5451,3.5459,3.5642,0,0,3.5485,3.5489,0,0,0,0,0,0,0,0,3.525,3.5255,3.5474,3.5475,3.5475,3.5532,3.5532,3.5533,3.5397,3.5392,3.5387,3.5382,3.5445,3.5451,3.5458,0,0,0,0,0,0,0,0,0,0,0,0,0,0,0,3.5474,3.5475,0,3.5532,3.5532,3.5533,3.5397,3.5392,3.5388,3.5384,3.5447,3.5452,3.5458,0,0,0,0,0,0,0,0,0,0,0,0,0,0,0,0,0,0,0,0,0,0,0,0,0,0,0,0,0,0,0,0,0,0,0,0,0,0,0,0,0,0,0,0,0,0,0,0,0,0,0,0,0,0,0,0,0,0,0,0,0,0,0,0,0,0,0,0,0]}],[{"header":{"parameterUnit":"kt","parameterCategory":2,"dx":1,"dy":1,"la1":30.253999710083008,"la2":30.299108505249023,"lo1":-89.0895004272461,"lo2":-89.04439544677734,"nx":28,"ny":28,"refTime":"2022-09-19T21:00:00:Z","depth":0,"parameterNumber":2,"parameterNumberName":"V-component_of_WINDS"},"data":[-2.7084,-2.7144,-2.7171,-2.7251,-2.7289,-2.7348,-2.7378,-2.7419,-2.7459,-2.7533,-2.7581,-2.7613,-2.7663,-2.7726,-2.7779,-2.7792,-2.7813,-2.7816,-2.7831,-2.7795,-2.7792,-2.7789,-2.7776,-2.782,-2.782,-2.7864,-2.7865,-2.7865,-2.7058,-2.7095,-2.7145,-2.7211,-2.7255,-2.7268,-2.7322,-2.7357,-2.741,-2.7459,-2.7507,-2.7575,-2.7631,-2.7681,-2.774,-2.7769,-2.7779,-2.7784,-2.7782,-2.779,-2.7752,-2.7739,-2.7775,-2.7775,-2.7775,-2.7775,-2.7775,-2.7775,-2.7016,-2.7051,-2.7106,-2.7161,-2.7201,-2.7245,-2.7283,-2.7322,-2.7371,-2.7436,-2.7457,-2.7517,-2.7571,-2.7655,-2.7689,-2.7737,-2.7737,-2.775,-2.7753,-2.7756,-2.7756,-2.7689,-2.7748,-2.7748,-2.7748,-2.7748,-2.7748,0,-2.6994,-2.7013,-2.7063,-2.712,-2.7161,-2.7208,-2.7256,-2.728,-2.7329,-2.7368,-2.7426,-2.7464,-2.7539,-2.7597,-2.7657,-2.7691,-2.7708,-2.7713,-2.7722,-2.7712,-2.7697,-2.7706,-2.7645,-2.771,-2.771,-2.771,-2.771,-2.771,-2.6954,-2.6991,-2.7061,-2.7092,-2.7124,-2.7174,-2.7209,-2.725,-2.7286,-2.735,-2.7379,-2.7437,-2.7485,-2.7574,-2.7619,-2.7675,-2.7684,-2.7706,-2.7692,-2.7682,-2.7685,-2.7682,-2.7686,-2.7708,-2.7708,-2.7708,-2.7708,0,-2.6929,-2.6971,-2.7037,-2.7102,-2.712,-2.7157,-2.7213,-2.7249,-2.7283,-2.7337,-2.7353,-2.7405,-2.7461,-2.7502,-2.7574,-2.7594,-2.7657,-2.7664,-2.7639,-2.7643,-2.7667,-2.7665,-2.7739,-2.7751,-2.7706,-2.7707,-2.7707,0,-2.6911,-2.6958,-2.7018,-2.7054,-2.7108,-2.7148,-2.72,-2.7234,-2.7281,-2.7324,-2.735,-2.739,-2.7437,-2.7483,-2.7512,-2.7571,-2.7584,-2.7603,-2.761,-2.76,-2.7598,-2.7619,-2.7617,-2.7624,-2.7624,-2.7623,-2.7623,0,-2.6868,-2.6955,-2.7014,-2.704,-2.7114,-2.7141,-2.7173,-2.7225,-2.7259,-2.7309,-2.7332,-2.7387,-2.7417,-2.746,-2.7497,-2.7486,-2.7569,-2.7562,-2.7588,-2.7588,-2.7604,-2.7603,-2.7659,-2.7622,-2.7622,-2.7622,-2.7622,0,-2.686,-2.691,-2.6989,-2.7051,-2.7072,-2.7111,-2.7168,-2.7211,-2.7263,-2.7284,-2.7324,-2.7346,-2.74,-2.739,-2.7465,-2.744,-2.7469,-2.7492,-2.7494,-2.7501,-2.7489,-2.7515,-2.7564,-2.7571,-2.7508,-2.7508,-2.7507,0,-2.6799,-2.6889,-2.6924,-2.6997,-2.7045,-2.7071,-2.7115,-2.7161,-2.7192,-2.7237,-2.7272,-2.7322,-2.7323,-2.7344,-2.7376,-2.7414,-2.7446,-2.7411,-2.7475,-2.7477,-2.746,-2.7506,-2.7503,-2.7549,-2.7495,-2.7496,-2.7497,0,-2.6757,-2.6846,-2.6857,-2.6889,-2.6956,-2.6995,-2.7045,-2.7104,-2.7132,-2.718,-2.7223,-2.7294,-2.7298,-2.7333,-2.7356,-2.7387,-2.7425,-2.7387,-2.7389,-2.7393,-2.7492,-2.749,-2.7497,-2.7434,-2.7436,-2.7437,-2.7488,0,-2.6737,-2.6787,-2.6817,-2.6886,-2.6922,-2.697,-2.7014,-2.7047,-2.7066,-2.7098,-2.7161,-2.7208,-2.7268,-2.7286,-2.7305,-2.7362,-2.7359,-2.7362,-2.7355,-2.7384,-2.7402,-2.7409,-2.7325,-2.7325,-2.7325,-2.7325,0,0,-2.6668,-2.674,-2.6776,-2.6826,-2.6859,-2.6885,-2.6933,-2.6968,-2.7038,-2.7061,-2.7057,-2.7164,-2.7202,-2.7275,-2.7287,-2.7311,-2.7325,-2.7313,-2.737,-2.7375,-2.7379,-2.7397,-2.7404,-2.7325,-2.7325,-2.7325,-2.7325,0,-2.6669,-2.6708,-2.6754,-2.6793,-2.6851,-2.6882,-2.6893,-2.6955,-2.6977,-2.7039,-2.7059,-2.7102,-2.7186,-2.7225,-2.7255,-2.7306,-2.7318,-2.732,-2.7333,-2.7368,-2.7373,-2.7378,-2.7396,-2.7403,-2.7325,-2.7325,-2.7325,0,-2.6636,-2.6681,-2.6708,-2.6784,-2.6822,-2.687,-2.6873,-2.6923,-2.6958,-2.6983,-2.7044,-2.7076,-2.7131,-2.7193,-2.7222,-2.722,-2.7309,-2.7288,-2.7289,-2.7293,-2.7329,-2.7335,-2.734,-2.7273,-2.7273,-2.7273,0,0,-2.6631,-2.6677,-2.6738,-2.6788,-2.681,-2.6857,-2.6886,-2.6908,-2.6957,-2.6976,-2.7017,-2.7063,-2.7113,-2.7144,-2.7193,-2.7255,-2.7269,-2.728,-2.7282,-2.7284,-2.7289,-2.7326,-2.7331,-2.7271,-2.7271,-2.7271,0,0,-2.6628,-2.6701,-2.6712,-2.6775,-2.682,-2.6883,-2.6912,-2.6926,-2.6974,-2.6973,-2.7012,-2.7026,-2.7085,-2.7115,-2.7092,-2.7191,-2.7183,-2.7189,-2.7169,-2.7172,-2.7175,-2.7166,-2.7101,0,0,0,0,0,-2.6651,-2.6692,-2.6701,-2.6718,-2.6814,-2.6878,-2.6891,-2.6924,-2.6918,-2.694,-2.6977,-2.6988,-2.7111,-2.7092,-2.7108,-2.7133,-2.7254,-2.7257,-2.726,-2.7249,-2.7252,-2.7255,0,0,0,0,0,0,-2.6658,-2.6679,-2.67,-2.6764,-2.6786,-2.6877,-2.6874,-2.6884,-2.6916,-2.6918,-2.6981,-2.699,-2.7019,-2.7086,-2.71,-2.7123,-2.7097,-2.7255,-2.7258,-2.726,-2.725,-2.7253,-2.7255,0,0,0,0,0,-2.6664,-2.6681,-2.6826,-2.6764,-2.6783,-2.6837,-2.6873,-2.6881,-2.6907,-2.6963,-2.6973,-2.6929,-2.7019,-2.7033,-2.7094,-2.7115,-2.7087,-2.7092,-2.7257,-2.7259,-2.7261,-2.7251,0,0,0,0,0,0,-2.6668,-2.6689,-2.683,-2.6837,-2.6751,-2.6832,-2.6846,-2.6879,-2.6951,-2.6961,-2.6913,-2.6913,-2.7019,-2.703,-2.7041,-2.7111,-2.708,-2.7085,-2.7088,-2.7258,-2.726,-2.7261,0,0,0,0,0,0,-2.668,-2.6694,-2.6834,-2.6815,-2.6821,-2.6828,-2.6841,-2.6897,-2.6951,-2.6897,-2.6899,-2.6912,-2.7003,-2.7028,-2.7037,-2.7124,-2.7074,-2.7079,-2.7082,-2.7084,-2.726,-2.7261,0,0,0,0,0,0,-2.6687,-2.6699,-2.6814,-2.6818,-2.6822,-2.6904,-2.6879,-2.6975,-2.6936,-2.6893,-2.6933,-2.6932,-2.7001,-2.701,-2.7034,-2.7117,-2.7122,-2.7074,-2.7077,-2.708,-2.7081,0,0,0,0,0,0,0,-2.6692,-2.6601,-2.6789,-2.682,-2.6824,-2.6902,-2.6904,-2.6906,-2.6935,-2.6934,-2.6933,-2.6932,-2.7046,-2.7051,-2.7057,-2.7112,0,0,-2.7074,-2.7076,0,0,0,0,0,0,0,0,-2.6597,-2.66,-2.6789,-2.679,-2.6792,-2.6903,-2.6904,-2.6906,-2.6935,-2.6934,-2.6934,-2.6933,-2.7047,-2.7051,-2.7056,0,0,0,0,0,0,0,0,0,0,0,0,0,0,0,-2.6789,-2.679,0,-2.6903,-2.6904,-2.6905,-2.6935,-2.6935,-2.6934,-2.6933,-2.7048,-2.7052,-2.7056,0,0,0,0,0,0,0,0,0,0,0,0,0,0,0,0,0,0,0,0,0,0,0,0,0,0,0,0,0,0,0,0,0,0,0,0,0,0,0,0,0,0,0,0,0,0,0,0,0,0,0,0,0,0,0,0,0,0,0,0,0,0,0,0,0,0,0,0,0]}]]]